OMD6HM LGAV-LBSF

Flight info

Callsign OMD6HM
Flight time N/A
Altitude 36000
Route KRO UT162 KOROS UN133 PEREN UL863 EVIVI Y94 VANET
Aircraft A320/M-SDE3FGHIRWY/LB1

Departure

Time N/A
Airport Athens Eleftherios Venizelos International Airport (LGAV)

Arrival

Time 2026-05-06 17:56
Airport Sofia Airport (LBSF)
Time Latitude Longitude Altitude Speed Heading
2026-05-06 17:13 39.04191 24.88071 36066 ft 431 kts 15°
2026-05-06 17:14 39.09963 24.89426 36064 ft 416 kts 355°
2026-05-06 17:14 39.15538 24.88062 36062 ft 404 kts 336°
2026-05-06 17:15 39.20565 24.85015 36055 ft 401 kts 332°
2026-05-06 17:15 39.25579 24.81910 36052 ft 399 kts 332°
2026-05-06 17:16 39.30592 24.78798 36052 ft 400 kts 332°
2026-05-06 17:16 39.35625 24.75665 36056 ft 403 kts 332°
2026-05-06 17:17 39.40648 24.72529 36057 ft 405 kts 332°
2026-05-06 17:17 39.45725 24.69353 36058 ft 406 kts 332°
2026-05-06 17:18 39.50810 24.66165 36059 ft 406 kts 332°
2026-05-06 17:18 39.55896 24.62975 36059 ft 406 kts 332°
2026-05-06 17:19 39.60979 24.59777 36059 ft 406 kts 332°
2026-05-06 17:19 39.66065 24.56584 36058 ft 406 kts 332°
2026-05-06 17:20 39.71117 24.53400 36049 ft 406 kts 332°
2026-05-06 17:20 39.76203 24.50193 36051 ft 406 kts 332°
2026-05-06 17:21 39.81285 24.46974 36050 ft 406 kts 332°
2026-05-06 17:21 39.86376 24.43750 36050 ft 406 kts 332°
2026-05-06 17:22 39.91426 24.40559 36053 ft 406 kts 332°
2026-05-06 17:22 39.96496 24.37344 36054 ft 405 kts 332°
2026-05-06 17:23 40.01556 24.34125 36053 ft 404 kts 332°
2026-05-06 17:23 40.06606 24.30898 36053 ft 404 kts 332°
2026-05-06 17:24 40.11654 24.27678 36052 ft 404 kts 332°
2026-05-06 17:24 40.16666 24.24482 36051 ft 403 kts 332°
2026-05-06 17:25 40.21704 24.21252 36050 ft 403 kts 332°
2026-05-06 17:25 40.26741 24.18023 36049 ft 403 kts 332°
2026-05-06 17:26 40.31775 24.14791 36048 ft 403 kts 332°
2026-05-06 17:26 40.36806 24.11553 36047 ft 403 kts 332°
2026-05-06 17:27 40.41801 24.08332 36047 ft 403 kts 332°
2026-05-06 17:27 40.46828 24.05082 36046 ft 403 kts 332°
2026-05-06 17:28 40.51854 24.01833 36045 ft 403 kts 332°
2026-05-06 17:28 40.56877 23.98572 36044 ft 403 kts 331°
2026-05-06 17:29 40.61906 23.95316 36042 ft 403 kts 332°
2026-05-06 17:29 40.66942 23.92158 36041 ft 404 kts 332°
2026-05-06 17:30 40.72026 23.88998 36041 ft 404 kts 332°
2026-05-06 17:30 40.77106 23.85812 36042 ft 405 kts 332°
2026-05-06 17:31 40.82204 23.82596 36042 ft 407 kts 332°
2026-05-06 17:31 40.87300 23.79374 36040 ft 410 kts 332°
2026-05-06 17:32 40.92454 23.76105 36040 ft 412 kts 332°
2026-05-06 17:32 40.97620 23.72824 36038 ft 412 kts 332°
2026-05-06 17:33 41.02787 23.69547 36035 ft 412 kts 332°
2026-05-06 17:33 41.07949 23.66260 36034 ft 411 kts 332°
2026-05-06 17:34 41.13065 23.62999 36032 ft 409 kts 332°
2026-05-06 17:34 41.18189 23.59731 36031 ft 408 kts 332°
2026-05-06 17:35 41.23295 23.56457 36030 ft 407 kts 332°
2026-05-06 17:35 41.28389 23.53181 36030 ft 407 kts 332°
2026-05-06 17:36 41.36030 23.48288 36028 ft 406 kts 332°
2026-05-06 17:36 41.41316 23.45756 36004 ft 412 kts 346°
2026-05-06 17:37 41.44172 23.45328 35781 ft 414 kts 355°
2026-05-06 17:37 41.47037 23.45228 35527 ft 411 kts 354°
2026-05-06 17:37 41.49886 23.45109 35278 ft 408 kts 354°
2026-05-06 17:37 41.52716 23.44972 35030 ft 408 kts 354°
2026-05-06 17:38 41.55559 23.44823 34781 ft 410 kts 354°
2026-05-06 17:38 41.58413 23.44667 34531 ft 412 kts 354°
2026-05-06 17:38 41.61255 23.44511 34285 ft 415 kts 354°
2026-05-06 17:38 41.64155 23.44357 34033 ft 417 kts 354°
2026-05-06 17:39 41.67029 23.44211 33782 ft 409 kts 354°
2026-05-06 17:39 41.69841 23.44078 33409 ft 401 kts 354°
2026-05-06 17:39 41.72627 23.43944 32887 ft 401 kts 354°
2026-05-06 17:39 41.75419 23.43807 32378 ft 401 kts 354°
2026-05-06 17:40 41.78207 23.43667 31878 ft 400 kts 354°
2026-05-06 17:40 41.80975 23.43524 31401 ft 395 kts 354°
2026-05-06 17:40 41.83705 23.43383 30857 ft 390 kts 354°
2026-05-06 17:40 41.86368 23.43247 30261 ft 386 kts 354°
2026-05-06 17:41 41.89035 23.43111 29665 ft 382 kts 354°
2026-05-06 17:41 41.91677 23.42978 29075 ft 378 kts 354°
2026-05-06 17:41 41.94300 23.42849 28480 ft 375 kts 354°
2026-05-06 17:41 41.96900 23.42719 27887 ft 372 kts 354°
2026-05-06 17:42 41.99482 23.42585 27119 ft 373 kts 354°
2026-05-06 17:42 42.02102 23.42620 26217 ft 382 kts
2026-05-06 17:42 42.04664 23.43648 25406 ft 391 kts 22°
2026-05-06 17:42 42.06956 23.45634 24554 ft 391 kts 31°
2026-05-06 17:43 42.09137 23.47744 23499 ft 391 kts 32°
2026-05-06 17:43 42.11321 23.49897 22503 ft 388 kts 33°
2026-05-06 17:43 42.13497 23.52067 21679 ft 389 kts 33°
2026-05-06 17:43 42.15655 23.54227 21029 ft 385 kts 33°
2026-05-06 17:44 42.17811 23.56380 20142 ft 387 kts 34°
2026-05-06 17:44 42.19990 23.58548 19129 ft 392 kts 34°
2026-05-06 17:44 42.22178 23.60718 18060 ft 388 kts 34°
2026-05-06 17:44 42.24343 23.62861 16960 ft 385 kts 35°
2026-05-06 17:45 42.26465 23.64964 15812 ft 382 kts 35°
2026-05-06 17:45 42.28616 23.67093 14547 ft 383 kts 35°
2026-05-06 17:45 42.30758 23.69221 13446 ft 380 kts 34°
2026-05-06 17:45 42.32863 23.71318 12439 ft 373 kts 35°
2026-05-06 17:46 42.34938 23.73386 11451 ft 367 kts 35°
2026-05-06 17:46 42.36978 23.75418 10447 ft 362 kts 35°
2026-05-06 17:46 42.38842 23.77278 9510 ft 358 kts 36°
2026-05-06 17:46 42.40904 23.79336 8469 ft 354 kts 36°
2026-05-06 17:47 42.42876 23.81305 7687 ft 346 kts 36°
2026-05-06 17:47 42.44720 23.83138 7437 ft 321 kts 34°
2026-05-06 17:47 42.46628 23.84437 7319 ft 296 kts 16°
2026-05-06 17:47 42.48577 23.84856 7196 ft 275 kts 358°
2026-05-06 17:48 42.50413 23.84496 7074 ft 261 kts 342°
2026-05-06 17:48 42.52116 23.83767 6945 ft 253 kts 342°
2026-05-06 17:48 42.53762 23.83053 6812 ft 243 kts 342°
2026-05-06 17:48 42.55341 23.82368 6684 ft 234 kts 342°
2026-05-06 17:49 42.56865 23.81706 6556 ft 226 kts 342°
2026-05-06 17:49 42.58336 23.81065 6427 ft 219 kts 341°
2026-05-06 17:49 42.59768 23.80441 6289 ft 213 kts 341°
2026-05-06 17:49 42.61171 23.79832 6090 ft 211 kts 341°
2026-05-06 17:50 42.62575 23.79222 5852 ft 212 kts 341°
2026-05-06 17:50 42.63953 23.78527 5618 ft 211 kts 332°
2026-05-06 17:50 42.65198 23.77474 5387 ft 211 kts 320°
2026-05-06 17:50 42.66233 23.76117 5163 ft 210 kts 308°
2026-05-06 17:51 42.67052 23.74483 4936 ft 209 kts 296°
2026-05-06 17:51 42.67587 23.72665 4718 ft 207 kts 282°
2026-05-06 17:51 42.67831 23.70739 4499 ft 206 kts 275°
2026-05-06 17:51 42.67973 23.68808 4302 ft 205 kts 274°
2026-05-06 17:52 42.68096 23.66882 4117 ft 203 kts 274°
2026-05-06 17:52 42.68213 23.65022 4039 ft 192 kts 274°
2026-05-06 17:52 42.68323 23.63276 4016 ft 179 kts 274°
2026-05-06 17:52 42.68425 23.61633 4017 ft 172 kts 274°
2026-05-06 17:53 42.68524 23.60043 3984 ft 170 kts 274°
2026-05-06 17:53 42.68623 23.58453 3834 ft 166 kts 273°
2026-05-06 17:53 42.68719 23.56903 3634 ft 161 kts 273°
2026-05-06 17:53 42.68811 23.55410 3416 ft 156 kts 273°
2026-05-06 17:54 42.68900 23.53959 3209 ft 151 kts 273°
2026-05-06 17:54 42.68987 23.52551 3014 ft 149 kts 272°
2026-05-06 17:54 42.69073 23.51149 2815 ft 148 kts 272°
2026-05-06 17:54 42.69161 23.49762 2611 ft 147 kts 272°
2026-05-06 17:55 42.69244 23.48374 2426 ft 149 kts 272°
2026-05-06 17:55 42.69327 23.46964 2255 ft 151 kts 272°
2026-05-06 17:55 42.69412 23.45529 2031 ft 153 kts 272°
2026-05-06 17:55 42.69513 23.44112 1825 ft 149 kts 274°
2026-05-06 17:56 42.69577 23.42769 1753 ft 131 kts 277°
2026-05-06 17:56 42.69637 23.41837 1753 ft 49 kts 282°
2026-05-06 17:56 42.69661 23.41516 1753 ft 33 kts 273°
2026-05-06 17:56 42.69678 23.41216 1753 ft 30 kts 274°
2026-05-06 17:57 42.69685 23.41006 1753 ft 20 kts 263°
2026-05-06 17:57 42.69648 23.40826 1753 ft 17 kts 246°
2026-05-06 17:57 42.69615 23.40732 1753 ft 8 kts 243°
2026-05-06 17:57 42.69591 23.40667 1753 ft 10 kts 246°
2026-05-06 17:58 42.69562 23.40576 1753 ft 9 kts 246°
2026-05-06 17:58 42.69527 23.40502 1753 ft 10 kts 218°
2026-05-06 17:58 42.69463 23.40465 1753 ft 10 kts 197°
2026-05-06 17:58 42.69391 23.40435 1753 ft 11 kts 197°
2026-05-06 17:59 42.69315 23.40404 1753 ft 12 kts 197°
2026-05-06 17:59 42.69233 23.40369 1753 ft 13 kts 197°
2026-05-06 17:59 42.69165 23.40332 1753 ft 6 kts 232°
2026-05-06 17:59 42.69163 23.40278 1753 ft 6 kts 285°
2026-05-06 18:00 42.69175 23.40219 1753 ft 7 kts 286°
2026-05-06 18:00 42.69164 23.40169 1753 ft 6 kts 204°
2026-05-06 18:00 42.69129 23.40155 1753 ft 3 kts 196°
2026-05-06 18:00 42.69123 23.40153 1753 ft 0 kts 196°